Погода в Пичеурах

Россия / Республика Мордовия     54°19′05″N   45°49′19″E
темп.,
°C
ветер,
м/с
пор.,
м/с
влажн.,
%
обл.,
%
осадки,
мм/ч
давл.,
гПа
погр.,
м
24 июля, сб
сб2400:00+14з347151 0.0 100662
03:00+12з23876 0.0 100736
06:00+14зсз25835 0.0 1008188
09:00+18сз346150 0.0 1009925
12:00+20сз56525 0.3 10101631
15:00+21сз564272 0.3 10102428
18:00+18с35646 0.1 1012586
21:00+13ссв22823 0.4 101511
25 июля, вс
вс2500:00+12с11850 0.0 101710
03:00+11сз11870 0.0 101810
06:00+13с12820 0.0 102094
09:00+17ссв22634 0.1 1021767
12:00+20с334837 0.6 10211642
15:00+21ссв334062 0.6 10211889
18:00+20всв245268 0.0 1021171
21:00+16ююз2260100 0.0 102322
26 июля, пн
пн2600:00+16ююз1161100 0.0 102311
03:00+15юз116152 0.0 102414
06:00+16ююз116580 0.0 102530
09:00+19зюз125283 0.0 1025368
12:00+21юз334266 0.0 10251466
15:00+22ююз233618 0.0 10241903
18:00+21юз3550100 0.0 1023151
21:00+18юз235098 0.0 102349
27 июля, вт
вт2700:00+14зюз225983 0.0 102311
03:00+13з22665 0.0 102311
06:00+15з256366 0.0 1023146
09:00+21зсз57485 0.0 1022662
12:00+25зсз573929 0.0 10212288
15:00+25сз584198 0.0 10192500
18:00+21зсз35558 0.3 1019104
21:00+18зсз34666 0.3 102052
28 июля, ср
ср2800:00+15зсз11775 0.0 102012
03:00+15сз227945 0.0 101922
06:00+16зсз25785 0.0 1019165
09:00+22сз34554 0.0 1019616
12:00+25сз35435 0.0 10171822
15:00+26зсз344491 0.0 10161354
18:00+23з2348100 0.0 101544
21:00+20юз336058 0.0 101541